ZIYUAN 1-02C (ZY 1-02C)

Last updated on Mon Sep 21 2026 00:02:45 GMT+0000 (Coordinated Universal Time)

1 38038U 11079A 26263.61055287 .00000391 00000+0 14271-3 0 9993 2 38038 98.3981 328.8836 0007062 31.6089 114.9844 14.38276885772922
UTC large
Height (km)
Speed (km/s)
/
Latitude / Longitude
Inclination (degrees)
Orbital Period (minutes)
Azimuth
Elevation
Range (km)
Doppler Factor

Next 0 passes for location: London (51.5072 / 0.1276)

No passes found over London.
ZIYUAN 1-02C (ZY 1-02C)